Date,TemperatureHighF,TemperatureAvgF,TemperatureLowF,DewpointHighF,DewpointAvgF,DewpointLowF,HumidityHigh,HumidityAvg,HumidityLow,PressureMaxIn,PressureMinIn,WindSpeedMaxMPH,WindSpeedAvgMPH,GustSpeedMaxMPH,PrecipitationSumIn
2013-2-1,48,33,20,30,24,19,95,73,46,0.00,40.00,6,4,8,0.01
2013-2-2,46,32,24,29,24,21,88,75,51,0.00,40.00,8,4,13,0.01
2013-2-3,48,33,21,27,24,20,95,72,44,0.00,40.00,6,4,11,0.00
2013-2-4,48,36,27,29,26,23,87,68,47,0.00,40.00,6,3,9,0.00
2013-2-5,43,35,30,32,27,24,89,72,47,0.00,40.00,12,5,21,0.00
2013-2-6,44,34,28,27,26,23,92,73,43,0.00,40.00,8,4,15,0.00
2013-2-7,41,32,25,27,21,15,91,67,41,0.00,40.00,10,5,18,0.00
2013-2-8,39,28,19,20,16,9,92,64,29,0.00,40.00,11,6,24,0.00
2013-2-9,43,28,14,25,18,11,87,67,40,0.00,40.00,8,4,12,0.00
2013-2-10,46,34,23,24,20,16,92,60,35,0.00,40.00,11,5,19,0.01
2013-2-11,49,33,18,29,20,15,87,62,33,0.00,40.00,14,5,22,0.01
2013-2-12,49,33,24,28,25,22,95,74,37,0.00,40.00,7,4,12,0.00
2013-2-13,51,36,25,31,27,23,93,72,41,0.00,40.00,9,4,15,0.00
2013-2-14,52,37,25,32,28,24,97,73,42,0.00,40.00,7,5,11,0.00
2013-2-15,54,39,25,30,26,23,94,65,36,0.00,40.00,7,4,10,0.00
2013-2-16,53,36,24,30,24,16,94,67,38,0.00,40.00,12,6,21,0.00
2013-2-17,43,30,17,22,16,8,92,60,27,0.00,40.00,7,3,11,0.00
2013-2-18,41,30,23,25,19,12,95,65,40,0.00,40.00,15,4,23,0.00
2013-2-19,31,26,21,27,23,18,93,87,80,0.00,40.00,7,4,17,0.03
2013-2-20,40,27,16,23,20,13,95,75,44,0.00,40.00,8,4,17,0.06
2013-2-21,36,28,18,24,20,16,90,74,51,0.00,40.00,10,5,19,0.01
2013-2-22,46,32,25,33,26,22,98,81,50,0.00,40.00,18,7,33,0.12
2013-2-23,34,27,20,25,21,16,94,77,61,0.00,40.00,14,7,23,0.18
2013-2-24,41,26,13,25,18,10,93,73,47,0.00,40.00,7,4,12,0.01
2013-2-25,39,31,26,31,22,16,98,70,41,0.00,40.00,14,8,25,0.02
2013-2-26,42,28,16,21,18,14,91,67,41,0.00,40.00,8,4,13,0.01
2013-2-27,49,32,20,31,21,16,86,65,37,0.00,40.00,8,4,14,0.00
2013-2-28,47,41,36,41,37,31,100,86,75,0.00,40.00,8,5,14,0.04